Tracking 19219 objects as of 19-Jul-2018
HD Live streaming from Space Station
objects crossing your sky now

FENGYUN 1C DEB

Track FENGYUN 1C DEB now!
10-day predictions


NORAD ID: 31418
Int'l Code: 1999-025BTE
Perigee: 802.2 km
Apogee: 890.2 km
Inclination: 99.1 °
Period: 101.7 minutes
Semi major axis: 7217 km
RCS: 0.0149 m2 (small)
Launch date: May 10, 1999
Source: People's Republic of China (PRC)
Launch site: Taiyaun Space Center, China (TSC)

Note: This is SATELLITE DEBRIS
aabbcc
Your satellite tracking list
Your tracking list is empty




NASA's NSSDC Master Catalog

Two Line Element Set (TLE):
1 31418U 99025BTE 18200.57932037  .00000798  00000-0  42077-3 0  9996
2 31418  99.1435 314.6826 0061020  34.5753 325.9364 14.15955821576861
Source of the keplerian elements: AFSPC